EHI
9 9 7 4 3 7 8 6 4 5 9 10 9 6 3 1 1 0 0 0 0 2 4 4 2 0 0 0 0 0 0 1 2 1 0 0 0 0 0 0 0 0 0
9 10 9 6 3 3 5 5 4 5 7 9 9 9 5 1 1 0 0 1 1 3 5 5 2 1 0 0 0 0 0 1 1 1 0 0 0 0 0 0 0 0 0
6 7 8 6 2 1 2 3 4 5 5 5 6 8 6 3 1 0 1 2 2 4 7 6 3 2 2 2 1 0 0 0 0 0 0 0 0 0 0 0 0 0 0
4 4 4 3 1 0 1 3 5 5 3 2 2 4 4 3 1 0 1 2 2 3 6 6 5 5 5 5 3 1 1 1 0 0 0 0 0 0 0 0 0 0 0
4 4 3 1 1 1 2 4 5 4 3 2 1 1 2 2 1 0 0 1 1 2 3 5 6 6 6 7 6 3 3 2 1 0 0 0 0 0 0 0 0 0 0
4 4 3 3 2 2 3 4 4 4 2 1 0 0 0 1 1 0 0 0 1 1 2 3 6 6 6 6 6 4 4 4 1 0 0 1 0 0 0 0 0 0 0
3 3 3 3 3 3 3 3 3 3 3 1 1 0 0 0 0 0 0 1 1 1 1 1 3 6 8 6 4 3 4 3 2 1 0 0 0 0 0 0 0 0 0
3 2 3 3 2 2 2 3 3 3 3 3 2 1 0 0 0 0 0 0 0 1 1 1 2 5 6 5 2 1 2 2 2 1 0 0 0 0 0 0 0 0 0
2 3 3 2 1 1 1 1 2 2 3 3 3 2 0 0 0 0 0 0 0 0 1 1 1 2 2 2 1 0 0 1 1 2 1 1 0 0 0 0 0 0 0
1 2 2 2 1 0 0 0 1 1 1 2 2 1 0 0 0 0 0 0 0 0 0 0 0 0 0 1 1 0 0 0 1 2 2 1 0 0 0 0 0 0 0
0 1 1 1 1 0 0 0 0 0 0 1 1 0 0 0 0 0 0 0 0 0 0 0 0 0 1 2 1 0 0 0 0 1 2 2 1 0 0 0 0 0 0
0 0 0 0 0 0 0 0 0 0 0 0 0 0 0 0 0 0 0 0 0 0 0 0 0 0 1 1 1 0 0 0 0 1 2 3 2 1 0 0 0 0 0
0 0 0 0 0 0 0 0 0 0 0 0 0 0 0 0 0 0 0 0 0 0 0 0 0 0 0 0 0 0 0 0 0 0 1 2 2 1 0 0 0 0 0
0 0 0 0 0 0 0 0 0 0 0 0 0 0 0 0 0 0 0 0 0 0 0 0 0 0 0 0 0 0 0 0 0 0 0 1 1 0 0 0 0 0 0
0 0 0 0 0 0 0 0 0 0 0 0 0 0 0 0 0 0 0 0 0 0 0 0 0 0 0 0 0 0 0 0 0 0 0 0 0 0 0 0 0 0 0
0 0 0 0 0 0 0 0 0 0 0 0 0 0 0 0 0 0 0 0 0 0 0 0 0 0 0 0 0 0 0 0 0 0 0 0 0 0 0 0 0 0 0
0 0 0 0 0 0 0 0 0 0 0 0 0 0 0 0 0 0 0 0 0 0 0 0 0 0 0 0 0 0 0 0 0 0 0 0 0 0 0 0 0 0 0
0 0 0 0 0 0 0 0 0 0 0 0 0 0 0 0 0 0 0 0 0 0 0 0 0 0 0 0 0 0 0 0 0 0 0 0 0 0 0 0 0 0 0
0 0 0 0 0 0 0 0 0 0 0 0 0 0 0 0 0 0 0 0 0 0 0 0 0 0 0 0 0 0 0 0 0 0 0 0 0 0 0 0 0 0 0
0 0 0 0 0 0 0 0 0 0 0 0 0 0 0 0 0 0 0 0 0 0 0 0 0 0 0 0 0 0 0 0 0 0 0 0 0 0 0 0 0 0 0
0 0 0 0 0 0 0 0 0 0 0 0 0 0 0 0 0 0 0 0 0 0 0 0 0 0 0 0 0 0 0 0 0 0 0 0 0 0 0 0 0 0 0
0 0 0 0 0 0 0 0 0 0 0 0 0 0 0 0 0 0 0 0 0 0 0 0 0 0 0 0 0 0 0 0 0 0 0 0 0 0 0 0 0 0 0
0 0 0 0 0 0 0 0 0 0 0 0 0 0 0 0 0 0 0 0 0 0 0 0 0 0 0 0 0 0 0 0 0 0 0 0 0 0 0 0 0 0 0
0 0 0 0 0 0 0 0 0 0 0 0 0 0 0 0 0 0 0 0 0 0 0 0 0 0 0 0 0 0 0 0 0 0 0 0 0 0 0 0 0 0 0
0 0 0 0 0 0 0 0 0 0 0 0 0 0 0 0 0 0 0 0 0 0 0 0 0 0 0 0 0 0 0 0 0 0 0 0 0 0 0 0 0 0 0
0 0 0 0 0 0 0 0 0 0 0 0 0 0 0 0 0 0 0 0 0 0 0 0 0 0 0 0 0 0 0 0 0 0 0 0 0 0 0 0 0 0 0
Wind_Speed
3 3 3 3 4 3 4 4 5 6 7 7 7 8 9 9 8 7 5 13 15 16 18 19 20 20 20 19 19 18 18 18 16 15 14 14 14 14 14 13 12 12 11
4 4 4 3 4 4 4 4 5 6 6 6 8 9 9 9 8 8 7 9 15 16 18 20 21 21 21 21 20 19 18 18 17 16 15 14 14 14 14 14 13 12 12
3 3 3 3 4 3 4 4 5 4 5 6 8 9 8 8 8 8 8 6 7 14 17 19 21 21 21 22 22 21 19 18 17 17 16 15 14 14 14 14 14 13 12
2 2 2 3 3 2 3 3 4 4 5 5 6 6 7 6 9 8 8 8 7 8 12 19 19 20 21 22 22 22 20 19 18 18 18 17 16 15 15 15 14 14 13
2 1 2 2 2 2 3 4 3 3 5 5 5 6 6 7 7 8 9 9 9 8 7 12 18 19 20 22 22 22 22 21 19 19 19 19 18 16 16 15 15 14 14
1 1 1 2 2 2 2 3 3 3 4 4 6 6 5 7 6 7 9 8 8 10 9 9 9 13 20 20 20 21 22 22 21 21 21 20 20 18 17 16 16 15 15
2 1 1 2 2 2 3 3 3 3 3 2 3 3 4 6 7 7 7 7 9 10 9 10 8 7 9 18 20 20 21 22 22 22 21 21 20 19 18 18 17 16 16
2 1 2 2 2 2 3 3 2 2 2 2 2 2 2 3 5 8 7 8 9 7 9 11 9 10 8 7 12 19 21 22 22 22 22 21 20 19 19 19 18 17 17
3 2 2 2 2 2 3 3 3 4 3 2 3 3 2 3 2 3 7 8 8 7 8 8 11 11 11 8 9 16 21 20 21 23 23 21 20 19 20 20 19 19 18
4 3 3 3 3 2 3 4 3 3 3 3 2 3 3 2 2 2 2 5 8 9 9 9 10 11 11 9 10 13 18 19 20 22 23 22 21 20 20 21 21 20 19
4 4 4 3 3 3 4 4 3 3 3 3 3 2 3 3 3 3 3 3 4 6 8 8 7 8 10 10 9 13 16 18 19 20 21 21 21 21 21 21 22 22 21
4 5 4 3 3 3 4 4 4 4 4 4 4 3 3 3 2 3 4 3 3 3 5 6 7 7 8 9 12 14 16 16 17 18 19 19 20 20 21 21 22 22 22
4 5 4 4 4 4 4 4 4 4 5 5 5 4 4 4 3 3 3 3 3 1 2 4 5 6 7 7 9 14 15 15 16 16 16 17 17 18 18 19 20 20 20
5 6 5 5 5 5 5 3 3 4 4 5 5 5 4 4 3 3 3 2 2 1 1 2 2 5 5 6 8 12 10 14 14 15 15 15 15 15 16 16 16 16 16
5 6 6 6 6 5 5 4 4 5 4 5 5 5 4 3 3 3 3 3 3 3 3 2 1 3 4 5 7 8 8 11 13 13 14 14 13 13 14 14 14 13 13
6 6 7 6 6 6 5 4 4 5 5 4 4 5 4 3 3 3 3 3 3 3 2 2 1 1 3 4 6 7 7 11 12 13 13 12 12 12 11 12 12 12 12
6 6 7 6 6 6 6 5 5 5 6 5 5 5 5 4 3 3 3 2 2 2 2 1 1 1 2 4 4 4 5 6 6 10 11 11 10 10 10 10 10 10 10
7 7 6 6 7 7 6 6 7 6 6 6 6 5 6 4 5 3 3 3 3 2 2 2 1 1 2 3 4 5 5 5 5 8 9 9 9 9 9 9 9 9 9
7 7 6 7 7 7 7 6 6 7 6 7 6 6 6 5 5 4 4 3 2 2 2 2 2 1 1 2 4 4 5 4 4 6 7 7 8 8 8 8 8 8 8
7 7 7 7 7 7 7 7 6 6 6 6 6 6 6 6 6 5 4 4 3 3 2 2 2 2 2 3 3 4 4 3 4 4 5 5 7 8 7 8 8 7 7
7 6 7 7 7 6 6 6 6 6 6 6 6 6 6 8 9 6 4 4 4 3 3 3 3 2 2 3 4 3 4 4 3 3 4 4 4 4 4 6 7 7 7
7 6 6 7 6 6 7 8 6 5 5 6 6 6 6 7 8 9 8 7 7 5 4 3 3 3 3 3 4 5 5 5 3 3 4 3 3 3 3 3 5 7 7
7 7 7 6 7 8 10 10 9 5 5 5 6 5 5 5 6 6 7 8 7 7 6 5 4 4 4 5 6 6 5 5 4 5 4 3 3 3 2 3 6 7 7
6 6 7 7 7 8 9 9 9 6 5 6 6 6 6 5 5 5 6 6 5 5 6 5 4 4 4 4 6 6 6 5 4 4 4 4 4 3 3 2 4 6 7
7 6 6 6 6 8 9 8 7 4 4 6 6 6 6 5 6 7 6 6 5 4 4 6 5 5 6 6 6 5 6 6 4 3 3 4 4 4 3 2 3 6 6
7 7 7 6 6 6 7 7 5 3 4 4 4 4 6 6 7 8 7 6 6 5 4 4 4 4 5 5 8 7 7 6 4 4 4 5 5 5 4 2 3 3 4
Wind_Direction
224 224 231 233 238 237 237 236 231 223 219 220 223 224 228 227 222 215 220 227 225 220 218 213 208 205 201 199 197 196 194 192 188 187 187 187 183 180 179 178 176 174 173
228 226 228 233 241 242 240 238 238 231 227 222 228 229 230 229 227 221 218 228 231 224 221 218 212 209 205 203 201 200 198 196 192 190 190 191 188 185 184 183 182 180 179
246 237 237 237 238 239 237 235 239 234 230 226 231 231 232 230 228 225 220 218 227 229 225 221 215 211 207 206 204 202 201 199 195 193 193 192 190 188 187 187 186 185 184
248 248 250 257 257 246 241 239 236 237 239 231 230 226 228 228 230 227 224 221 220 225 228 226 218 212 209 209 208 205 203 202 199 197 196 195 194 192 191 191 190 188 187
271 247 247 262 270 252 244 250 239 233 240 236 233 229 226 227 231 232 226 223 219 219 219 225 219 212 210 211 211 208 206 204 202 201 200 199 198 196 195 194 193 191 190
285 254 253 273 274 262 256 252 254 242 241 238 242 240 228 226 224 228 230 227 221 220 220 221 216 214 211 210 211 211 210 208 206 205 204 203 202 199 197 197 196 195 194
298 258 263 264 251 251 257 256 251 252 247 228 232 248 244 231 227 228 227 226 225 222 217 215 211 206 210 211 210 211 211 211 209 207 207 205 204 201 200 199 199 198 198
309 287 265 264 254 253 261 254 239 246 250 215 207 224 255 257 238 230 222 225 228 220 219 217 212 208 206 201 209 212 214 214 211 209 209 207 205 202 201 202 202 201 200
320 307 295 283 270 248 255 257 240 235 242 238 216 210 214 234 255 234 222 224 222 218 218 215 213 212 208 204 205 211 213 214 212 211 210 208 205 203 202 203 204 204 204
325 313 292 275 268 256 252 255 239 234 235 244 240 235 234 225 232 261 239 223 221 220 218 215 213 210 207 204 206 205 208 209 211 211 210 209 206 203 203 205 206 207 207
318 314 302 283 270 261 258 253 249 234 227 234 234 235 242 245 235 242 255 238 225 222 217 212 208 206 204 203 205 208 203 204 207 211 211 208 206 204 204 206 210 211 210
307 310 310 297 283 271 266 260 252 246 239 239 239 233 230 233 223 228 244 241 235 230 219 213 208 205 200 201 207 203 200 200 203 207 209 207 205 205 205 209 213 215 215
297 299 306 297 290 279 272 260 254 253 245 240 237 236 238 242 232 224 240 243 234 236 220 218 212 206 203 198 204 200 200 198 199 202 204 205 203 203 203 207 212 215 217
280 286 290 286 283 283 283 268 257 252 242 239 245 241 239 244 235 225 222 220 230 232 226 225 198 202 202 195 200 195 199 195 196 198 201 202 200 199 200 203 207 210 211
281 287 291 288 285 282 278 273 258 256 248 242 244 241 239 242 239 235 231 214 204 211 220 219 190 193 196 192 189 191 190 189 190 193 195 195 194 194 195 197 200 204 206
285 289 289 288 285 283 275 267 265 257 248 247 244 240 237 238 237 234 232 229 214 202 210 206 197 181 182 182 177 181 185 179 181 183 183 184 185 187 190 193 197 200 202
291 288 285 284 281 279 275 266 263 260 250 247 248 240 239 231 229 229 228 228 227 196 197 193 160 99 141 153 150 157 160 161 166 170 170 172 175 178 183 186 191 194 195
291 286 285 283 279 277 270 261 263 262 254 250 244 238 241 232 227 223 218 223 223 206 192 186 157 131 129 150 138 138 140 143 147 154 156 160 164 168 173 177 180 184 187
292 289 283 278 277 276 271 263 256 257 254 252 246 237 237 229 226 221 212 214 222 213 193 168 157 132 125 133 121 112 120 117 128 138 141 146 151 153 157 162 166 170 173
290 288 285 279 275 274 271 266 259 256 256 255 249 241 237 228 224 218 211 204 204 202 182 166 156 148 146 136 136 135 131 123 120 117 117 125 133 136 143 147 152 156 160
293 287 287 285 279 273 264 260 256 256 253 255 252 243 236 230 225 215 207 199 191 187 184 179 168 154 160 156 161 151 143 131 108 124 123 122 127 130 138 143 146 149 154
298 295 290 288 286 279 280 275 265 255 253 253 253 247 240 234 225 214 211 201 190 184 190 187 182 178 180 175 162 154 147 149 150 151 135 128 127 131 134 143 148 150 152
302 302 296 291 286 282 281 279 272 258 250 250 249 246 244 232 213 209 207 204 203 203 196 188 193 194 181 181 170 166 167 164 160 157 142 139 138 139 132 134 148 152 152
302 299 297 294 288 286 285 280 275 259 250 249 245 237 235 239 225 202 194 196 201 211 208 203 205 209 203 184 182 176 164 141 114 145 154 148 149 144 126 121 136 144 144
306 303 299 297 292 292 293 287 272 247 243 248 245 236 228 228 225 205 191 189 193 211 218 213 210 213 210 191 171 153 153 155 151 164 166 147 143 132 130 136 126 132 136
301 304 302 299 294 294 299 295 274 235 238 243 242 239 233 225 215 203 192 186 194 203 194 194 201 202 200 193 186 179 170 170 155 164 169 150 145 145 148 147 153 149 135